EW5967 Weather Reports


Display with metric or nautical units.
time (UTC)temp
F
wind
direction
speed
MPH
gust
MPH
rain 1hr
in
rain 24hr
in
rain mn
in
humidity
%
barometer
mb
20260831202510 91 180 6.0 12.0 0.00 0.00 0.00 19 1005.5
20260831202010 92 171 4.0 21.0 0.00 0.00 0.00 20 1005.6
20260831201520 92 142 9.0 21.0 0.00 0.00 0.00 20 1005.7
20260831201010 92 159 5.0 16.0 0.00 0.00 0.00 20 1005.7
20260831200509 91 190 6.0 18.0 0.00 0.00 0.00 20 1005.8
20260831200009 90 126 8.0 17.0 0.00 0.00 0.00 23 1005.8
20260831195507 90 147 7.0 17.0 0.00 0.00 0.00 23 1005.9
20260831195006 90 151 11.0 17.0 0.00 0.00 0.00 22 1006.0
20260831194506 90 176 4.0 15.0 0.00 0.00 0.00 22 1006.0
20260831194006 90 136 5.0 18.0 0.00 0.00 0.00 23 1006.1
20260831193506 90 173 7.0 19.0 0.00 0.00 0.00 22 1006.3
20260831193006 90 142 6.0 19.0 0.00 0.00 0.00 22 1006.3
20260831192503 90 195 7.0 17.0 0.00 0.00 0.00 22 1006.3
20260831192002 89 180 8.0 16.0 0.00 0.00 0.00 23 1006.4
20260831191502 89 207 9.0 16.0 0.00 0.00 0.00 23 1006.5
20260831191004 89 138 9.0 17.0 0.00 0.00 0.00 23 1006.5
20260831190503 90 186 8.0 16.0 0.00 0.00 0.00 23 1006.6
20260831190001 89 183 7.0 15.0 0.00 0.00 0.00 23 1006.6
20260831185500 89 168 10.0 18.0 0.00 0.00 0.00 23 1006.7
20260831185104 89 160 9.0 20.0 0.00 0.00 0.00 24 1006.7
20260831184600 88 155 8.0 20.0 0.00 0.00 0.00 24 1006.7
20260831184102 89 164 8.0 15.0 0.00 0.00 0.00 24 1006.7
20260831183559 89 182 5.0 12.0 0.00 0.00 0.00 24 1006.7
20260831183108 89 160 6.0 17.0 0.00 0.00 0.00 24 1006.8
20260831182558 88 134 8.0 17.0 0.00 0.00 0.00 24 1006.8
20260831182100 88 80 7.0 13.0 0.00 0.00 0.00 24 1006.8
20260831181604 88 133 8.0 16.0 0.00 0.00 0.00 24 1006.8
20260831181056 88 48 6.0 16.0 0.00 0.00 0.00 25 1006.8
20260831180556 88 130 4.0 12.0 0.00 0.00 0.00 25 1006.8
20260831180111 88 135 4.0 13.0 0.00 0.00 0.00 25 1006.9
20260831175554 87 136 4.0 15.0 0.00 0.00 0.00 25 1006.9
20260831175057 87 124 7.0 15.0 0.00 0.00 0.00 25 1007.0
20260831174553 87 100 5.0 14.0 0.00 0.00 0.00 25 1007.0
20260831174055 87 115 3.0 12.0 0.00 0.00 0.00 25 1007.0
20260831173552 87 142 5.0 12.0 0.00 0.00 0.00 25 1007.1
20260831173052 87 114 4.0 10.0 0.00 0.00 0.00 25 1007.2
20260831172550 87 139 4.0 10.0 0.00 0.00 0.00 25 1007.2
20260831172049 86 139 3.0 8.0 0.00 0.00 0.00 26 1007.2
20260831171552 86 119 2.0 10.0 0.00 0.00 0.00 26 1007.2
20260831171048 86 139 3.0 10.0 0.00 0.00 0.00 26 1007.2
20260831170548 86 150 2.0 6.0 0.00 0.00 0.00 26 1007.1
20260831170046 85 170 2.0 9.0 0.00 0.00 0.00 26 1007.2
20260831165544 85 157 3.0 9.0 0.00 0.00 0.00 27 1007.2
20260831165043 84 117 2.0 8.0 0.00 0.00 0.00 27 1007.1
20260831164548 85 134 3.0 8.0 0.00 0.00 0.00 27 1007.1
20260831164042 84 22 0.0 5.0 0.00 0.00 0.00 29 1007.1
20260831163541 83 9 1.0 6.0 0.00 0.00 0.00 28 1007.0
20260831163044 83 88 3.0 6.0 0.00 0.00 0.00 29 1007.0
20260831162541 83 62 1.0 7.0 0.00 0.00 0.00 29 1007.0
20260831162039 83 54 3.0 8.0 0.00 0.00 0.00 29 1007.0
20260831161548 82 284 1.0 4.0 0.00 0.00 0.00 30 1007.0
20260831161037 82 285 1.0 4.0 0.00 0.00 0.00 30 1007.0
20260831160537 82 285 1.0 4.0 0.00 0.00 0.00 30 1006.9
20260831160038 81 285 1.0 4.0 0.00 0.00 0.00 31 1006.9
20260831155537 81 286 2.0 4.0 0.00 0.00 0.00 31 1006.9
20260831155037 81 285 1.0 5.0 0.00 0.00 0.00 30 1007.0
20260831154539 80 285 2.0 5.0 0.00 0.00 0.00 31 1007.0
20260831154037 81 283 2.0 4.0 0.00 0.00 0.00 30 1006.9
20260831153535 81 281 2.0 5.0 0.00 0.00 0.00 30 1006.9
20260831153035 81 281 1.0 4.0 0.00 0.00 0.00 31 1006.7
20260831152538 80 281 1.0 4.0 0.00 0.00 0.00 31 1006.7
20260831152033 80 281 0.0 4.0 0.00 0.00 0.00 31 1006.7
20260831151533 80 281 1.0 3.0 0.00 0.00 0.00 31 1006.7
20260831151035 80 281 0.0 4.0 0.00 0.00 0.00 32 1006.6
20260831150533 80 281 2.0 4.0 0.00 0.00 0.00 31 1006.6
20260831150032 79 281 1.0 7.0 0.00 0.00 0.00 31 1006.5
20260831145531 79 279 4.0 7.0 0.00 0.00 0.00 31 1006.4
20260831145030 79 271 4.0 7.0 0.00 0.00 0.00 31 1006.4
20260831144529 79 252 2.0 4.0 0.00 0.00 0.00 32 1006.3
20260831144029 79 250 2.0 4.0 0.00 0.00 0.00 32 1006.2
20260831143529 78 250 1.0 3.0 0.00 0.00 0.00 33 1006.1
20260831143029 78 249 0.0 3.0 0.00 0.00 0.00 33 1006.1
20260831142529 78 249 0.0 3.0 0.00 0.00 0.00 33 1006.1
20260831142026 78 249 0.0 2.0 0.00 0.00 0.00 34 1006.0
20260831141526 77 249 0.0 2.0 0.00 0.00 0.00 34 1005.9
20260831141025 77 249 0.0 2.0 0.00 0.00 0.00 35 1005.8
20260831140525 77 249 1.0 2.0 0.00 0.00 0.00 35 1005.7
20260831140024 77 249 0.0 2.0 0.00 0.00 0.00 35 1005.6
20260831135525 76 249 0.0 2.0 0.00 0.00 0.00 36 1005.5
20260831135024 76 249 0.0 1.0 0.00 0.00 0.00 35 1005.4
20260831134523 75 249 0.0 2.0 0.00 0.00 0.00 36 1005.5
20260831134022 75 249 0.0 2.0 0.00 0.00 0.00 36 1005.4
20260831133521 75 249 0.0 2.0 0.00 0.00 0.00 37 1005.3
20260831133027 75 249 0.0 2.0 0.00 0.00 0.00 37 1005.2
20260831132520 74 249 1.0 2.0 0.00 0.00 0.00 38 1005.2
20260831132020 75 249 0.0 2.0 0.00 0.00 0.00 37 1005.1
20260831131518 75 249 0.0 1.0 0.00 0.00 0.00 37 1005.1
20260831131020 75 249 0.0 2.0 0.00 0.00 0.00 36 1005.0
20260831130517 75 249 0.0 3.0 0.00 0.00 0.00 36 1005.0
20260831130016 75 249 0.0 3.0 0.00 0.00 0.00 36 1004.9
20260831125517 75 249 1.0 3.0 0.00 0.00 0.00 35 1005.0
20260831125016 75 249 0.0 2.0 0.00 0.00 0.00 35 1005.0
20260831124519 76 249 0.0 2.0 0.00 0.00 0.00 33 1005.0
20260831124014 76 249 0.0 1.0 0.00 0.00 0.00 31 1004.9
20260831123513 76 249 0.0 2.0 0.00 0.00 0.00 31 1004.9
20260831123017 76 249 0.0 1.0 0.00 0.00 0.00 31 1004.7
20260831122516 76 249 0.0 1.0 0.00 0.00 0.00 32 1004.8
20260831122013 76 249 0.0 2.0 0.00 0.00 0.00 31 1004.6
20260831121514 76 249 0.0 2.0 0.00 0.00 0.00 32 1004.6
20260831121013 76 249 0.0 2.0 0.00 0.00 0.00 32 1004.7
20260831120512 76 249 0.0 2.0 0.00 0.00 0.00 33 1004.7
20260831120011 76 249 0.0 2.0 0.00 0.00 0.00 34 1004.7
20260831115511 76 249 0.0 2.0 0.00 0.00 0.00 34 1004.8
20260831115015 76 249 0.0 2.0 0.00 0.00 0.00 34 1004.8
20260831114509 77 249 0.0 0.0 0.00 0.00 0.00 33 1004.7
20260831114009 77 249 0.0 0.0 0.00 0.00 0.00 33 1004.7
20260831113507 77 249 0.0 0.0 0.00 0.00 0.00 33 1004.7
20260831113009 77 249 0.0 0.0 0.00 0.00 0.00 33 1004.7
20260831112505 78 249 0.0 0.0 0.00 0.00 0.00 33 1004.6
20260831112004 78 249 0.0 1.0 0.00 0.00 0.00 32 1004.6
20260831111504 78 249 0.0 2.0 0.00 0.00 0.00 31 1004.6
20260831111003 78 249 0.0 2.0 0.00 0.00 0.00 29 1004.5
20260831110502 78 249 0.0 2.0 0.00 0.00 0.00 28 1004.5
20260831110004 78 249 0.0 0.0 0.00 0.00 0.00 27 1004.5
20260831105501 79 249 0.0 0.0 0.00 0.00 0.00 27 1004.4
20260831105043 79 249 0.0 0.0 0.00 0.00 0.00 27 1004.4
20260831104611 79 249 0.0 0.0 0.00 0.00 0.00 27 1004.4
20260831104100 79 249 0.0 1.0 0.00 0.00 0.00 27 1004.4
20260831103559 79 249 0.0 2.0 0.00 0.00 0.00 27 1004.3
20260831103059 79 249 0.0 2.0 0.00 0.00 0.00 27 1004.4
20260831102559 80 249 1.0 3.0 0.00 0.00 0.00 26 1004.3
20260831102058 80 249 1.0 3.0 0.00 0.00 0.00 26 1004.2
20260831101558 80 249 0.0 3.0 0.00 0.00 0.00 26 1004.2
20260831101058 80 249 1.0 3.0 0.00 0.00 0.00 26 1004.1
20260831100557 80 249 0.0 3.0 0.00 0.00 0.00 26 1004.1
20260831100116 80 249 1.0 7.0 0.00 0.00 0.00 26 1004.1
20260831095557 80 248 3.0 7.0 0.00 0.00 0.00 26 1004.1
20260831095057 79 245 0.0 3.0 0.00 0.00 0.00 27 1004.2
20260831094558 79 245 1.0 4.0 0.00 0.00 0.00 27 1004.3
20260831094057 79 245 1.0 2.0 0.00 0.00 0.00 27 1004.2
20260831093657 79 245 1.0 2.0 0.00 0.00 0.00 27 1004.2
20260831093101 79 245 0.0 2.0 0.00 0.00 0.00 27 1004.3
20260831092557 79 245 0.0 2.0 0.00 0.00 0.00 27 1004.3
20260831092056 79 245 0.0 2.0 0.00 0.00 0.00 27 1004.2
20260831091555 79 246 1.0 3.0 0.00 0.00 0.00 27 1004.1
20260831091055 79 245 1.0 3.0 0.00 0.00 0.00 27 1004.1
20260831090556 79 245 1.0 3.0 0.00 0.00 0.00 27 1004.1
20260831090054 79 245 1.0 4.0 0.00 0.00 0.00 28 1004.1
20260831085554 79 245 1.0 3.0 0.00 0.00 0.00 28 1004.1
20260831085053 79 245 0.0 2.0 0.00 0.00 0.00 27 1004.2
20260831084559 80 245 0.0 2.0 0.00 0.00 0.00 27 1004.2
20260831084050 80 245 0.0 2.0 0.00 0.00 0.00 27 1004.2
20260831083551 80 245 0.0 3.0 0.00 0.00 0.00 27 1004.1
20260831083049 80 245 0.0 2.0 0.00 0.00 0.00 26 1004.2
20260831082549 80 245 0.0 2.0 0.00 0.00 0.00 26 1004.1
20260831082048 80 245 0.0 1.0 0.00 0.00 0.00 26 1004.2
20260831081548 80 245 0.0 1.0 0.00 0.00 0.00 26 1004.2
20260831081048 80 245 0.0 1.0 0.00 0.00 0.00 26 1004.2
20260831080548 80 245 0.0 2.0 0.00 0.00 0.00 26 1004.2
20260831080055 80 245 0.0 2.0 0.00 0.00 0.00 26 1004.2
20260831075548 80 245 0.0 2.0 0.00 0.00 0.00 26 1004.2
20260831075047 81 245 0.0 2.0 0.00 0.00 0.00 26 1004.2
20260831074547 81 245 0.0 3.0 0.00 0.00 0.00 26 1004.3
20260831074047 81 245 0.0 3.0 0.00 0.00 0.00 26 1004.3
20260831073547 81 245 0.0 2.0 0.00 0.00 0.00 26 1004.3
20260831073049 81 245 0.0 2.0 0.00 0.00 0.00 26 1004.3
20260831072545 81 245 0.0 3.0 0.00 0.00 0.00 26 1004.3
20260831072044 81 245 0.0 3.0 0.00 0.00 0.00 26 1004.3
20260831071544 81 245 0.0 2.0 0.00 0.00 0.00 26 1004.3
20260831071042 82 245 0.0 2.0 0.00 0.00 0.00 25 1004.2
20260831070541 82 245 0.0 1.0 0.00 0.00 0.00 25 1004.2
20260831070040 82 246 0.0 0.0 0.00 0.00 0.00 25 1004.2
20260831065542 83 245 0.0 2.0 0.00 0.00 0.00 24 1004.1
20260831065041 83 245 0.0 3.0 0.00 0.00 0.00 24 1004.0
20260831064540 83 245 0.0 3.0 0.00 0.00 0.00 24 1004.1
20260831064039 83 245 1.0 5.0 0.00 0.00 0.00 24 1004.1
20260831063539 82 246 3.0 5.0 0.00 0.00 0.00 25 1004.1
20260831063038 83 252 1.0 4.0 0.00 0.00 0.00 25 1004.1
20260831062538 83 254 0.0 3.0 0.00 0.00 0.00 24 1004.0
20260831062038 83 254 1.0 3.0 0.00 0.00 0.00 24 1003.9
20260831061537 83 254 0.0 4.0 0.00 0.00 0.00 24 1003.8
20260831061036 84 254 2.0 4.0 0.00 0.00 0.00 24 1003.8
20260831060536 83 254 2.0 4.0 0.00 0.00 0.00 24 1003.8
20260831060036 84 254 2.0 3.0 0.00 0.00 0.00 24 1003.9
20260831055537 84 254 2.0 3.0 0.00 0.00 0.00 24 1004.0
20260831055036 83 254 1.0 3.0 0.00 0.00 0.00 24 1004.0
20260831054536 83 254 1.0 3.0 0.00 0.00 0.00 24 1004.0
20260831054036 83 255 1.0 7.0 0.00 0.00 0.00 24 1004.1
20260831053538 84 255 2.0 7.0 0.00 0.00 0.00 24 1004.0
20260831053035 84 261 1.0 2.0 0.00 0.00 0.00 24 1004.0
20260831052538 84 261 0.0 2.0 0.00 0.00 0.00 24 1004.0
20260831052034 84 261 0.0 2.0 0.00 0.00 0.00 24 1004.0
20260831051540 84 261 0.0 3.0 0.00 0.00 0.00 23 1004.0
20260831051034 85 261 0.0 6.0 0.00 0.00 0.00 23 1004.0
20260831050535 85 261 1.0 6.0 0.00 0.00 0.00 23 1003.9
20260831050034 85 259 0.0 7.0 0.00 0.00 0.00 23 1004.0
20260831045534 85 254 2.0 7.0 0.00 0.00 0.00 23 1004.0
20260831045037 85 244 1.0 4.0 0.00 0.00 0.00 23 1004.0
20260831044542 85 244 1.0 5.0 0.00 0.00 0.00 23 1004.0
20260831044036 85 243 1.0 5.0 0.00 0.00 0.00 23 1004.1
20260831043533 85 238 0.0 3.0 0.00 0.00 0.00 23 1004.1
20260831043033 85 238 0.0 7.0 0.00 0.00 0.00 23 1004.2
20260831042536 85 238 2.0 7.0 0.00 0.00 0.00 23 1004.2
20260831042033 86 219 0.0 5.0 0.00 0.00 0.00 22 1004.1
20260831041544 86 219 1.0 5.0 0.00 0.00 0.00 22 1004.1
20260831041036 86 217 1.0 3.0 0.00 0.00 0.00 22 1004.2
20260831040532 86 217 0.0 4.0 0.00 0.00 0.00 22 1004.2
20260831040033 86 217 1.0 6.0 0.00 0.00 0.00 22 1004.0
20260831035532 87 217 1.0 6.0 0.00 0.00 0.00 21 1004.0
20260831035132 87 226 2.0 6.0 0.00 0.00 0.00 21 1003.9
20260831034532 87 238 2.0 8.0 0.00 0.00 0.00 21 1003.8
20260831034032 87 242 3.0 8.0 0.00 0.00 0.00 21 1003.7
20260831033531 87 227 3.0 8.0 0.00 0.00 0.00 21 1003.6
20260831033032 86 250 3.0 8.0 0.00 0.00 0.00 21 1003.4
20260831032531 86 220 1.0 4.0 0.00 0.00 0.00 21 1003.3
20260831032031 86 219 1.0 4.0 0.00 0.00 0.00 21 1003.3
20260831031530 86 218 0.0 2.0 0.00 0.00 0.00 21 1003.2
20260831031031 86 218 0.0 4.0 0.00 0.00 0.00 20 1003.2
20260831030531 86 217 0.0 4.0 0.00 0.00 0.00 20 1003.2
20260831030030 86 217 0.0 3.0 0.00 0.00 0.00 19 1003.2
20260831025530 87 217 0.0 3.0 0.00 0.00 0.00 19 1003.1
20260831025030 87 217 0.0 3.0 0.00 0.00 0.00 19 1003.1
20260831024530 87 217 0.0 3.0 0.00 0.00 0.00 19 1003.1
20260831024033 87 217 1.0 3.0 0.00 0.00 0.00 19 1003.1
20260831023532 87 217 0.0 2.0 0.00 0.00 0.00 19 1003.0
20260831023029 87 217 0.0 2.0 0.00 0.00 0.00 18 1003.0
20260831022529 87 217 0.0 2.0 0.00 0.00 0.00 18 1003.0
20260831022029 88 217 0.0 3.0 0.00 0.00 0.00 18 1002.9
20260831021536 88 217 0.0 3.0 0.00 0.00 0.00 18 1002.9
20260831021029 88 217 0.0 3.0 0.00 0.00 0.00 18 1002.9
20260831020529 89 217 0.0 3.0 0.00 0.00 0.00 18 1002.9
20260831020028 89 217 1.0 4.0 0.00 0.00 0.00 18 1002.9
20260831015528 89 216 1.0 4.0 0.00 0.00 0.00 18 1002.8
20260831015028 89 216 1.0 6.0 0.00 0.00 0.00 18 1002.8
20260831014528 89 215 2.0 6.0 0.00 0.00 0.00 18 1002.8
20260831014028 90 218 2.0 5.0 0.00 0.00 0.00 18 1002.8
20260831013531 90 215 2.0 6.0 0.00 0.00 0.00 18 1002.9
20260831013028 90 223 3.0 6.0 0.00 0.00 0.00 17 1002.9
20260831012527 90 215 2.0 5.0 0.00 0.00 0.00 18 1002.9
20260831012028 91 257 0.0 6.0 0.00 0.00 0.00 17 1002.9
20260831011526 91 257 0.0 8.0 0.00 0.00 0.00 17 1002.8
20260831011027 91 235 4.0 8.0 0.00 0.00 0.00 17 1002.8
20260831010526 91 228 2.0 7.0 0.00 0.00 0.00 17 1002.8
20260831010026 91 215 3.0 7.0 0.00 0.00 0.00 17 1002.9
20260831005526 91 227 3.0 9.0 0.00 0.00 0.00 17 1002.8
20260831005028 91 205 4.0 9.0 0.00 0.00 0.00 17 1002.8
20260831004526 91 232 4.0 11.0 0.00 0.00 0.00 17 1002.9
20260831004030 91 219 5.0 11.0 0.00 0.00 0.00 17 1002.9
20260831003527 91 234 2.0 9.0 0.00 0.00 0.00 17 1003.0
20260831003026 91 205 4.0 6.0 0.00 0.00 0.00 17 1003.0
20260831002526 91 234 1.0 6.0 0.00 0.00 0.00 17 1003.0
20260831002025 91 240 3.0 8.0 0.00 0.00 0.00 18 1003.0
20260831001525 91 227 4.0 9.0 0.00 0.00 0.00 17 1003.1
20260831001030 91 232 3.0 9.0 0.00 0.00 0.00 17 1003.2
20260831000525 91 209 4.0 8.0 0.00 0.00 0.00 17 1003.2
20260831000036 91 237 4.0 13.0 0.00 0.00 0.00 19 1003.1
20260830235524 91 217 3.0 15.0 0.00 0.00 0.00 19 1003.2
20260830235026 91 196 5.0 10.0 0.00 0.00 0.00 19 1003.3
20260830234525 91 211 3.0 10.0 0.00 0.00 0.00 19 1003.4
20260830234024 91 259 3.0 10.0 0.00 0.00 0.00 19 1003.5
20260830233528 91 250 4.0 10.0 0.00 0.00 0.00 19 1003.5
20260830233033 90 227 2.0 10.0 0.00 0.00 0.00 19 1003.5
20260830232524 90 239 3.0 8.0 0.00 0.00 0.00 20 1003.5
20260830232025 90 196 3.0 10.0 0.00 0.00 0.00 19 1003.6
20260830231529 90 212 5.0 11.0 0.00 0.00 0.00 19 1003.6
20260830231022 90 276 2.0 11.0 0.00 0.00 0.00 19 1003.6
20260830230525 90 254 5.0 15.0 0.00 0.00 0.00 19 1003.8
20260830230022 90 263 5.0 15.0 0.00 0.00 0.00 19 1003.8
20260830225522 90 240 4.0 9.0 0.00 0.00 0.00 19 1003.8
20260830225022 90 208 4.0 12.0 0.00 0.00 0.00 19 1003.8
20260830224522 90 250 2.0 12.0 0.00 0.00 0.00 19 1003.9
20260830224023 90 213 5.0 10.0 0.00 0.00 0.00 19 1004.0
20260830223521 90 227 5.0 10.0 0.00 0.00 0.00 19 1004.0
20260830223022 90 233 4.0 10.0 0.00 0.00 0.00 19 1004.0
20260830222622 90 267 4.0 10.0 0.00 0.00 0.00 19 1004.0
20260830222024 91 243 3.0 10.0 0.00 0.00 0.00 19 1004.1
20260830221520 91 232 5.0 10.0 0.00 0.00 0.00 19 1004.1
20260830221020 90 256 3.0 11.0 0.00 0.00 0.00 19 1004.0
20260830220520 90 246 4.0 11.0 0.00 0.00 0.00 19 1004.0
20260830220020 90 234 4.0 10.0 0.00 0.00 0.00 19 1004.0
20260830215520 89 233 3.0 7.0 0.00 0.00 0.00 20 1004.0
20260830215023 89 234 2.0 10.0 0.00 0.00 0.00 20 1004.1
20260830214519 89 215 4.0 10.0 0.00 0.00 0.00 20 1004.2
20260830214019 89 260 3.0 9.0 0.00 0.00 0.00 20 1004.3
20260830213518 89 197 5.0 14.0 0.00 0.00 0.00 20 1004.3
20260830213020 89 265 3.0 14.0 0.00 0.00 0.00 20 1004.5
20260830212618 89 221 3.0 9.0 0.00 0.00 0.00 20 1004.6
20260830212018 89 215 5.0 10.0 0.00 0.00 0.00 20 1004.6
20260830211519 89 254 5.0 10.0 0.00 0.00 0.00 20 1004.7
20260830211017 89 222 4.0 10.0 0.00 0.00 0.00 19 1004.7
20260830210519 89 241 3.0 14.0 0.00 0.00 0.00 19 1004.7
20260830210027 89 235 6.0 14.0 0.00 0.00 0.00 19 1004.8
20260830205520 89 226 3.0 11.0 0.00 0.00 0.00 19 1004.8
20260830205016 90 261 4.0 10.0 0.00 0.00 0.00 19 1004.8
20260830204521 90 210 5.0 10.0 0.00 0.00 0.00 18 1004.8
20260830204016 90 219 3.0 9.0 0.00 0.00 0.00 18 1004.8
20260830203522 90 240 4.0 10.0 0.00 0.00 0.00 18 1004.8
20260830203016 90 234 2.0 12.0 0.00 0.00 0.00 18 1004.9